When you browse on this site, cookies collect data to enhance your experience and personalize the content and advertising you see.
Visit our Privacy Policy to learn more. By continuing to use the site, you agree to this use of cookies and data.
  • In Sweden
  • List of Countries
  • For 7 days
  • Water Temperature
  • Weather Map
  • Weather Widgets
  • user-avatar
    Login

    Hourly Weather Óbarok

    Today, 22 October, Tuesday

    Time Temperature Precipitation Wind Pressure Humidity
    00:00 +18°C° 0 mm 1 mps 741 mmHg 80%
    01:00 +16°C° 0 mm 1 mps 741 mmHg 83%
    02:00 +16°C° 0 mm 1 mps 741 mmHg 84%
    03:00 +15°C° 0 mm 1 mps 741 mmHg 85%
    04:00 +15°C° 0 mm 1 mps 741 mmHg 86%
    05:00 +15°C° 0 mm 1 mps 741 mmHg 86%
    06:00 +15°C° 0 mm 1 mps 742 mmHg 85%
    07:00 +15°C° 0 mm 1 mps 742 mmHg 83%
    08:00 +16°C° 0 mm 1 mps 743 mmHg 74%
    09:00 +19°C° 0 mm 1 mps 743 mmHg 66%
    10:00 +21°C° 0 mm 1 mps 743 mmHg 58%
    11:00 +21°C° 0 mm 2 mps 743 mmHg 54%
    12:00 +24°C° 0 mm 2 mps 743 mmHg 49%
    13:00 +25°C° 0 mm 2 mps 743 mmHg 47%
    14:00 +24°C° 0 mm 2 mps 743 mmHg 50%
    15:00 +24°C° 0 mm 2 mps 742 mmHg 52%
    16:00 +23°C° 0 mm 1 mps 742 mmHg 55%
    17:00 +22°C° 0 mm 1 mps 742 mmHg 60%
    18:00 +20°C° 0 mm 1 mps 742 mmHg 64%
    19:00 +17°C° 0 mm 0 mps 742 mmHg 69%
    20:00 +17°C° 0 mm 0 mps 742 mmHg 70%
    21:00 +16°C° 0 mm 0 mps 742 mmHg 71%
    22:00 +18°C° 0 mm 1 mps 742 mmHg 73%
    23:00 +18°C° 0 mm 1 mps 742 mmHg 73%

    Tomorrow, 23 October, Wednesday

    Time Temperature Precipitation Wind Pressure Humidity
    00:00 +16°C° 0 mm 1 mps 742 mmHg 74%
    01:00 +16°C° 0 mm 1 mps 742 mmHg 74%
    02:00 +16°C° 0 mm 1 mps 742 mmHg 74%
    03:00 +15°C° 0 mm 1 mps 741 mmHg 74%
    04:00 +15°C° 0 mm 2 mps 741 mmHg 74%
    05:00 +15°C° 0 mm 2 mps 741 mmHg 74%
    06:00 +15°C° 0 mm 2 mps 741 mmHg 74%
    07:00 +14°C° 0 mm 2 mps 741 mmHg 73%
    08:00 +17°C° 0 mm 2 mps 741 mmHg 66%
    09:00 +19°C° 0 mm 3 mps 741 mmHg 58%
    10:00 +21°C° 0 mm 3 mps 741 mmHg 50%
    11:00 +22°C° 0 mm 3 mps 741 mmHg 46%
    12:00 +23°C° 0 mm 4 mps 741 mmHg 41%
    13:00 +25°C° 0 mm 4 mps 740 mmHg 37%
    14:00 +25°C° 0 mm 3 mps 740 mmHg 38%
    15:00 +24°C° 0 mm 3 mps 739 mmHg 39%
    16:00 +22°C° 0 mm 3 mps 739 mmHg 40%
    17:00 +21°C° 0 mm 3 mps 739 mmHg 43%
    18:00 +19°C° 0 mm 3 mps 739 mmHg 46%
    19:00 +18°C° 0 mm 3 mps 739 mmHg 49%
    20:00 +17°C° 0 mm 3 mps 739 mmHg 51%
    21:00 +17°C° 0 mm 3 mps 739 mmHg 53%
    22:00 +16°C° 0 mm 3 mps 739 mmHg 55%
    23:00 +16°C° 0 mm 2 mps 738 mmHg 58%

    Day after tomorrow, 24 October, Thursday

    Time Temperature Precipitation Wind Pressure Humidity
    00:00 +15°C° 0 mm 2 mps 738 mmHg 60%
    01:00 +15°C° 0 mm 2 mps 738 mmHg 62%
    02:00 +14°C° 0 mm 2 mps 738 mmHg 63%
    03:00 +14°C° 0 mm 2 mps 737 mmHg 64%
    04:00 +14°C° 0 mm 2 mps 737 mmHg 66%
    05:00 +13°C° 0 mm 2 mps 737 mmHg 66%
    06:00 +12°C° 0 mm 3 mps 737 mmHg 66%
    07:00 +12°C° 0 mm 3 mps 737 mmHg 65%
    08:00 +14°C° 0 mm 3 mps 737 mmHg 59%
    09:00 +17°C° 0 mm 3 mps 737 mmHg 52%
    10:00 +19°C° 0 mm 3 mps 737 mmHg 45%
    11:00 +21°C° 0 mm 4 mps 737 mmHg 42%
    12:00 +22°C° 0 mm 4 mps 737 mmHg 38%
    13:00 +23°C° 0 mm 5 mps 736 mmHg 35%
    14:00 +23°C° 0 mm 4 mps 736 mmHg 36%
    15:00 +22°C° 0 mm 4 mps 736 mmHg 38%
    16:00 +22°C° 0 mm 3 mps 736 mmHg 39%
    17:00 +20°C° 0 mm 3 mps 736 mmHg 43%
    18:00 +19°C° 0 mm 3 mps 736 mmHg 46%
    19:00 +17°C° 0 mm 2 mps 736 mmHg 50%
    20:00 +17°C° 0 mm 2 mps 736 mmHg 52%
    21:00 +16°C° 0 mm 2 mps 736 mmHg 54%
    22:00 +16°C° 0 mm 2 mps 737 mmHg 56%
    23:00 +15°C° 0 mm 2 mps 737 mmHg 57%

    25 October, Friday

    Time Temperature Precipitation Wind Pressure Humidity
    00:00 +15°C° 0 mm 2 mps 737 mmHg 58%
    01:00 +14°C° 0 mm 1 mps 737 mmHg 59%
    02:00 +14°C° 0 mm 1 mps 737 mmHg 61%
    03:00 +14°C° 0 mm 1 mps 737 mmHg 62%
    04:00 +13°C° 0 mm 1 mps 738 mmHg 63%
    05:00 +13°C° 0 mm 1 mps 738 mmHg 65%
    06:00 +13°C° 0 mm 1 mps 739 mmHg 67%
    07:00 +13°C° 0 mm 1 mps 739 mmHg 69%
    08:00 +15°C° 0 mm 2 mps 739 mmHg 65%
    09:00 +16°C° 0 mm 3 mps 740 mmHg 61%
    10:00 +18°C° 0 mm 3 mps 740 mmHg 56%
    11:00 +19°C° 0 mm 3 mps 740 mmHg 54%
    12:00 +20°C° 0 mm 3 mps 740 mmHg 53%
    13:00 +20°C° 0 mm 3 mps 740 mmHg 51%
    14:00 +20°C° 0 mm 3 mps 740 mmHg 54%
    15:00 +19°C° 0 mm 2 mps 740 mmHg 56%
    16:00 +19°C° 0 mm 2 mps 740 mmHg 59%
    17:00 +17°C° 0 mm 2 mps 740 mmHg 65%
    18:00 +16°C° 0 mm 1 mps 740 mmHg 71%
    19:00 +15°C° 0 mm 1 mps 740 mmHg 77%
    20:00 +14°C° 0 mm 1 mps 740 mmHg 79%
    21:00 +14°C° 0 mm 1 mps 741 mmHg 81%
    22:00 +12°C° 0 mm 0 mps 741 mmHg 83%
    23:00 +12°C° 0 mm 0 mps 740 mmHg 83%

    26 October, Saturday

    Time Temperature Precipitation Wind Pressure Humidity
    00:00 +12°C° 0 mm 0 mps 740 mmHg 84%
    01:00 +12°C° 0 mm 0 mps 740 mmHg 84%
    02:00 +11°C° 0 mm 0 mps 740 mmHg 84%
    03:00 +11°C° 0 mm 0 mps 740 mmHg 84%
    04:00 +11°C° 0 mm 0 mps 740 mmHg 85%
    05:00 +11°C° 0 mm 0 mps 740 mmHg 85%
    06:00 +12°C° 0 mm 1 mps 740 mmHg 86%
    07:00 +12°C° 0 mm 1 mps 740 mmHg 86%
    08:00 +14°C° 0 mm 1 mps 741 mmHg 78%
    09:00 +16°C° 0 mm 1 mps 741 mmHg 70%
    10:00 +19°C° 0 mm 1 mps 741 mmHg 62%
    11:00 +20°C° 0 mm 1 mps 741 mmHg 56%
    12:00 +20°C° 0 mm 2 mps 741 mmHg 50%
    13:00 +23°C° 0 mm 2 mps 740 mmHg 45%
    14:00 +21°C° 0 mm 2 mps 740 mmHg 48%
    15:00 +20°C° 0 mm 2 mps 740 mmHg 51%
    16:00 +19°C° 0 mm 2 mps 739 mmHg 54%
    17:00 +19°C° 0 mm 1 mps 739 mmHg 58%
    18:00 +18°C° 0 mm 1 mps 739 mmHg 62%
    19:00 +15°C° 0 mm 1 mps 739 mmHg 66%
    20:00 +15°C° 0 mm 1 mps 739 mmHg 68%
    21:00 +15°C° 0 mm 1 mps 739 mmHg 70%
    22:00 +14°C° 0 mm 1 mps 739 mmHg 71%
    23:00 +14°C° 0 mm 1 mps 739 mmHg 74%

    27 October, Sunday

    Time Temperature Precipitation Wind Pressure Humidity
    00:00 +14°C° 0 mm 1 mps 739 mmHg 76%
    01:00 +13°C° 0 mm 1 mps 739 mmHg 78%
    02:00 +13°C° 0 mm 1 mps 739 mmHg 80%
    03:00 +11°C° 0 mm 0 mps 738 mmHg 82%
    04:00 +11°C° 0 mm 0 mps 738 mmHg 84%
    05:00 +11°C° 0 mm 0 mps 738 mmHg 84%
    06:00 +11°C° 0 mm 0 mps 738 mmHg 84%
    07:00 +12°C° 0 mm 1 mps 738 mmHg 84%
    08:00 +14°C° 0 mm 1 mps 739 mmHg 75%
    09:00 +16°C° 0 mm 2 mps 739 mmHg 66%
    10:00 +18°C° 0 mm 3 mps 739 mmHg 57%
    11:00 +19°C° 0 mm 4 mps 739 mmHg 55%
    12:00 +19°C° 0 mm 5 mps 739 mmHg 52%
    13:00 +20°C° 0 mm 6 mps 739 mmHg 49%
    14:00 +19°C° 0 mm 5 mps 739 mmHg 51%
    15:00 +19°C° 0 mm 5 mps 739 mmHg 53%
    16:00 +18°C° 0 mm 4 mps 739 mmHg 55%
    17:00 +17°C° 0 mm 4 mps 740 mmHg 58%
    18:00 +15°C° 0 mm 4 mps 740 mmHg 61%
    19:00 +14°C° 0 mm 4 mps 740 mmHg 64%
    20:00 +13°C° 0 mm 4 mps 741 mmHg 60%
    21:00 +12°C° 0 mm 4 mps 741 mmHg 57%
    22:00 +10°C° 0 mm 5 mps 741 mmHg 53%
    23:00 +11°C° 0 mm 4 mps 741 mmHg 52%

    28 October, Monday

    Time Temperature Precipitation Wind Pressure Humidity
    00:00 +10°C° 0 mm 4 mps 741 mmHg 51%
    01:00 +10°C° 0 mm 3 mps 741 mmHg 50%
    02:00 +10°C° 0 mm 3 mps 741 mmHg 50%
    03:00 +10°C° 0 mm 3 mps 741 mmHg 50%
    04:00 +9°C° 0 mm 3 mps 740 mmHg 51%
    05:00 +9°C° 0.1 mm 2 mps 740 mmHg 53%
    06:00 +9°C° 0.1 mm 2 mps 740 mmHg 55%
    07:00 +9°C° 0.1 mm 2 mps 740 mmHg 57%
    08:00 +8°C° 0.2 mm 2 mps 740 mmHg 60%
    09:00 +8°C° 0.2 mm 2 mps 740 mmHg 64%
    10:00 +8°C° 0.2 mm 2 mps 741 mmHg 68%
    11:00 +7°C° 0.5 mm 2 mps 740 mmHg 72%
    12:00 +7°C° 0.5 mm 2 mps 740 mmHg 75%
    13:00 +7°C° 0.5 mm 2 mps 740 mmHg 79%
    14:00 +8°C° 0.1 mm 1 mps 740 mmHg 79%
    15:00 +8°C° 0.1 mm 1 mps 739 mmHg 79%
    16:00 +8°C° 0.1 mm 1 mps 739 mmHg 79%
    17:00 +8°C° 0 mm 1 mps 739 mmHg 78%
    18:00 +8°C° 0 mm 1 mps 739 mmHg 77%
    19:00 +8°C° 0 mm 1 mps 739 mmHg 77%
    20:00 +8°C° 0 mm 1 mps 739 mmHg 76%
    21:00 +8°C° 0 mm 1 mps 739 mmHg 76%
    22:00 +8°C° 0 mm 1 mps 739 mmHg 76%
    23:00 +7°C° 0 mm 2 mps 739 mmHg 75%
    Show more